CAPE
0 0 0 0 0 0 0 0 0 0 0 0 0 0 0 0 0 0 30 51 62 89 170 261 170 221 320 182 107 29 1 4 3 2 3 2 4 4 4 15 13 23 31 13 6 4 3 4 8
0 0 0 0 0 0 0 0 0 0 0 0 0 0 0 0 0 1 20 35 77 88 143 258 165 122 247 137 54 7 0 3 3 4 15 2 6 6 5 11 9 17 17 16 6 7 9 3 7
0 0 0 0 0 0 0 0 0 0 0 0 0 0 0 0 0 1 14 49 83 141 146 256 172 77 105 44 53 25 0 0 5 9 9 3 7 5 8 15 9 16 18 7 9 8 3 4 5
0 0 0 0 0 0 0 0 0 0 0 0 0 0 0 0 0 1 12 63 74 120 113 127 111 41 48 0 21 5 6 0 2 7 3 5 3 4 10 3 10 17 15 7 6 7 9 5 3
0 0 0 0 0 0 0 0 0 0 0 0 0 0 0 0 0 4 45 41 71 98 56 110 70 44 17 7 16 9 10 11 4 6 5 5 2 2 3 2 9 16 8 6 5 4 3 3 1
0 0 0 0 0 0 0 0 0 0 0 0 0 0 0 0 0 3 15 35 6 5 44 74 54 22 0 12 13 11 19 22 15 9 7 4 7 5 3 5 4 12 13 5 6 2 0 0 0
0 0 0 0 0 0 0 0 0 0 0 0 0 0 0 0 2 1 9 27 0 2 16 41 47 13 0 0 3 6 18 17 13 5 2 6 2 6 4 4 3 7 8 11 7 0 0 0 0
0 0 6 0 0 0 0 0 0 0 0 0 0 0 0 0 1 2 11 6 0 0 7 10 29 9 6 0 0 5 4 21 7 0 0 0 2 1 1 1 9 14 7 5 0 0 0 0 0
0 0 2 0 0 0 0 0 0 0 0 0 0 0 0 0 2 2 4 6 3 1 1 7 13 16 16 8 2 1 1 5 5 0 0 0 3 4 5 10 11 12 3 0 0 0 0 0 0
0 2 0 8 0 0 0 0 0 0 0 0 0 0 0 1 1 1 2 1 1 0 0 1 5 9 7 2 0 17 3 8 6 1 1 8 6 12 11 3 0 0 0 0 0 0 0 0 0
0 0 0 0 0 0 0 0 0 0 0 0 0 0 0 0 0 1 0 1 0 0 0 0 1 2 0 0 4 9 5 4 10 8 3 4 5 6 4 0 0 0 0 0 0 0 0 0 0
0 0 0 0 0 0 0 0 0 0 0 0 0 0 0 0 0 0 0 0 2 0 0 0 0 0 0 0 0 3 3 2 2 0 0 0 0 0 0 0 0 0 0 0 0 0 0 0 0
3 0 0 0 0 0 0 0 0 0 0 0 0 0 0 0 0 2 2 2 3 1 0 0 1 0 0 0 0 0 0 0 0 0 0 0 0 0 0 0 0 0 0 0 0 0 0 0 0
0 0 0 0 0 0 0 0 0 0 0 0 0 0 0 0 0 2 1 1 2 0 0 0 0 0 0 0 0 0 0 0 0 0 0 0 0 0 0 0 0 0 0 0 0 0 0 0 0
0 0 0 0 0 0 0 0 0 0 0 0 0 0 0 0 0 0 0 0 3 0 0 0 0 1 0 0 0 0 0 0 0 0 0 0 0 0 0 0 0 0 0 0 0 0 0 0 0
1 0 0 0 0 0 0 0 0 0 0 0 0 0 0 0 0 0 0 0 0 0 0 0 0 1 0 0 0 0 0 0 0 0 0 0 0 0 0 0 0 0 0 0 0 0 0 0 1
9 1 5 1 0 0 0 0 0 0 0 0 0 0 0 0 0 0 0 0 0 0 0 0 0 1 1 0 0 0 0 0 0 0 0 0 0 0 0 0 0 0 0 0 0 0 0 1 4
2 2 4 0 0 0 0 0 0 0 0 0 0 0 0 0 0 0 0 0 0 0 0 0 0 0 0 0 0 0 0 0 0 0 0 0 0 0 0 0 0 0 0 0 0 0 0 1 6
2 7 5 1 0 0 0 0 0 0 0 0 0 0 0 0 0 0 0 0 0 0 0 0 0 0 1 1 1 0 0 0 0 0 0 0 0 0 0 0 0 0 0 0 0 0 1 2 2
0 0 0 1 0 0 0 0 0 0 0 0 0 0 0 0 0 0 0 0 0 0 0 0 0 0 1 1 0 0 0 0 0 0 0 0 0 0 0 0 0 0 0 0 0 0 0 2 5
0 0 0 1 0 0 0 0 0 0 0 0 0 0 0 0 0 0 0 0 0 0 0 0 0 0 0 0 0 1 1 1 1 0 0 0 0 0 0 0 0 0 0 0 0 0 0 2 3
3 2 0 0 0 0 0 0 0 0 0 0 0 0 0 0 0 0 0 0 0 0 0 0 0 0 0 0 0 1 0 0 0 0 0 0 0 0 0 0 0 0 0 0 0 0 0 1 5
1 0 7 6 7 1 0 0 0 0 0 0 0 0 0 0 0 0 0 0 0 0 0 0 0 0 0 0 0 0 0 0 0 0 0 0 0 0 0 0 0 0 0 0 0 1 0 1 5
9 8 9 36 7 0 0 0 0 0 0 0 0 0 0 0 0 0 0 0 0 0 0 0 0 0 0 0 0 0 0 0 0 0 0 0 0 0 0 0 0 0 0 0 0 0 1 2 3
17 11 0 0 0 0 0 2 0 0 0 0 0 0 0 0 0 0 0 0 0 0 0 0 0 0 0 0 0 0 0 0 0 0 0 0 0 0 0 0 0 0 0 0 0 0 1 2 1
2 1 5 0 1 0 0 0 0 0 0 0 0 0 0 0 0 0 0 0 0 0 0 0 0 0 0 0 0 0 0 0 0 0 0 0 0 0 0 0 0 0 0 0 0 2 3 3 2
5 40 0 11 0 0 0 0 0 0 0 0 0 0 0 0 0 0 0 0 0 0 0 0 0 0 0 0 0 0 0 0 0 0 0 0 0 0 0 0 0 0 0 0 1 1 0 1 1
31 1 21 13 7 0 0 0 0 0 0 0 0 0 0 0 0 0 0 0 0 0 0 0 0 0 0 0 0 0 0 0 0 0 0 0 0 0 0 0 0 0 0 0 2 0 0 1 1
3 5 3 3 5 9 0 0 0 0 0 0 0 0 0 0 0 0 0 0 0 0 0 0 0 0 0 0 0 0 0 0 0 0 0 0 0 0 0 0 0 0 0 1 1 2 1 0 0
12 5 6 0 0 0 0 0 0 0 0 0 0 0 0 0 0 0 0 0 0 0 0 0 0 0 0 0 0 0 0 0 0 1 0 0 0 1 0 0 0 0 0 0 1 2 0 0 0
CIN
0 0 0 0 0 0 0 0 0 0 0 0 0 0 0 0 0 0 -84 -123 -86 -58 -35 -3 -13 -7 -2 -5 -14 -24 -6 0 0 0 0 -1 0 -1 0 -5 -4 -2 0 -1 0 0 0 0 0
0 0 0 0 0 0 0 0 0 0 0 0 0 0 0 0 0 0 -78 -131 -76 -48 -23 -8 -11 -12 -1 -9 -20 -41 0 -1 0 0 -3 -2 0 0 0 -3 -2 -4 -3 -2 0 -1 -1 -1 0
0 0 0 0 0 0 0 0 0 0 0 0 0 0 0 0 0 0 -43 -111 -66 -35 -12 -4 -6 -8 -22 -7 -5 -77 0 0 0 -2 -4 -2 0 0 -1 -2 -1 -4 -1 0 0 0 0 0 0
0 0 0 0 0 0 0 0 0 0 0 0 0 0 0 0 0 -1 -82 -76 -51 -42 -30 -5 -36 -29 -7 -1 -7 -2 -1 0 -1 -1 -2 -3 -3 -2 0 0 -2 -2 -2 -1 0 0 0 0 0
0 0 0 0 0 0 0 0 0 0 0 0 0 0 0 0 0 0 -80 -70 -44 -37 -60 -26 -20 -50 -51 -15 -16 -7 -2 -1 -5 -2 0 -2 -1 0 0 -1 -1 -3 -1 -1 0 0 0 0 0
0 0 0 0 0 0 0 0 0 0 0 0 0 0 0 0 0 0 -25 -54 0 0 -69 -45 -35 -27 0 -9 -9 -9 -2 -2 -12 -3 -2 -2 -1 0 0 -1 -1 -2 -2 0 0 0 0 0 0
0 0 0 0 0 0 0 0 0 0 0 0 0 0 0 0 0 -2 0 -54 0 -1 -13 -67 -49 -27 0 0 -2 -10 -5 -4 -7 -5 -3 -3 -1 -1 0 0 -2 -2 -1 0 0 0 0 0 0
0 0 -1 0 0 0 0 0 0 0 0 0 0 0 0 0 0 -1 0 0 0 -1 0 0 -95 -1 0 0 0 -6 -8 -7 -10 0 0 0 -1 0 -1 -1 -1 0 0 0 0 0 0 0 0
0 0 -1 0 0 0 0 0 0 0 0 0 0 0 0 0 0 -2 0 0 -1 0 -1 0 0 -40 0 0 0 -2 -8 -19 -15 0 0 0 -1 -1 0 -5 -2 -1 0 0 0 0 0 0 0
0 -1 0 -58 -2 0 0 0 0 0 0 0 0 0 0 0 0 0 0 0 0 0 0 -1 0 0 0 -1 0 -1 -5 -2 -1 0 -1 0 -1 0 0 0 0 0 0 0 0 0 0 0 0
0 0 0 0 0 0 0 0 0 0 0 0 0 0 0 0 0 0 0 0 0 0 0 0 0 0 0 0 -1 -1 0 -1 -1 0 0 0 0 0 0 0 0 0 0 0 0 0 0 0 0
-1 0 0 0 0 0 0 0 0 0 0 0 0 0 0 0 0 0 0 0 0 0 0 0 0 0 0 0 0 -1 0 0 0 0 0 0 0 0 0 0 0 0 0 0 0 0 0 0 0
-21 0 0 0 0 0 0 0 0 0 0 0 0 0 0 0 0 0 0 0 0 -1 0 0 -1 0 0 0 0 0 0 0 0 0 0 0 0 0 0 0 0 0 0 0 0 0 0 0 0
0 0 0 0 0 0 0 0 0 0 0 0 0 0 0 0 0 0 0 0 0 0 0 0 0 0 0 0 0 0 0 0 0 0 0 0 0 0 0 0 0 0 0 0 0 0 0 0 0
0 0 0 0 0 0 0 0 0 0 0 0 0 0 0 0 0 0 0 0 0 0 0 0 0 0 0 0 0 0 0 0 0 0 0 0 0 0 0 0 0 0 0 0 0 0 0 0 0
-1 0 0 0 0 0 0 0 0 0 0 0 0 0 0 0 0 0 0 0 0 0 0 0 0 0 0 0 0 0 0 0 0 0 0 0 0 0 0 0 0 0 0 0 0 0 0 0 0
-1 0 -1 -1 0 0 0 0 0 0 0 0 0 0 0 0 0 0 0 0 0 0 0 0 0 0 0 0 0 0 0 0 0 0 0 0 0 0 0 0 0 0 0 0 0 0 0 0 0
0 0 0 0 0 0 0 0 0 0 0 0 0 0 0 0 0 0 0 0 0 0 0 0 0 0 0 0 0 0 0 0 0 0 0 0 0 0 0 0 0 0 0 0 0 0 0 -1 0
0 0 -1 -2 0 0 0 0 0 0 0 0 0 0 0 0 0 0 0 0 0 0 0 0 0 0 0 0 0 0 0 0 0 0 0 0 0 0 0 0 0 0 0 0 0 0 0 0 0
0 0 0 0 0 0 0 0 0 0 0 0 0 0 0 0 0 0 0 0 0 0 0 0 0 0 0 0 0 0 0 0 0 0 0 0 0 0 0 0 0 0 0 0 0 0 0 0 0
-2 0 0 0 0 0 0 0 0 0 0 0 0 0 0 0 0 0 0 0 0 0 0 0 0 0 0 0 0 -1 0 -1 0 0 0 0 0 0 0 0 0 0 0 0 0 0 0 0 0
0 -1 0 0 0 0 0 0 0 0 0 0 0 0 0 0 0 0 0 0 0 0 0 0 0 0 0 0 0 0 0 0 0 0 0 0 0 0 0 0 0 0 0 0 0 0 0 0 0
0 -1 0 -4 -1 0 0 0 0 0 0 0 0 0 0 0 0 0 0 0 0 0 0 0 0 0 0 0 0 0 0 0 0 0 0 0 0 0 0 0 0 0 0 0 0 0 0 0 0
-3 0 -1 0 -8 0 0 -1 0 0 0 0 0 0 0 0 0 0 0 0 0 0 0 0 0 0 0 0 0 0 0 0 0 0 0 0 0 0 0 0 0 0 0 0 0 0 0 0 0
0 -3 0 -1 0 0 0 -1 0 0 0 0 0 0 0 0 0 0 0 0 0 0 0 0 0 0 0 0 0 0 0 0 0 0 0 0 0 0 0 0 0 0 0 0 0 0 0 0 0
0 0 -1 0 -2 0 0 0 0 0 0 0 0 0 0 0 0 0 0 0 0 0 0 0 0 0 0 0 0 0 0 0 0 0 0 0 0 0 0 0 0 0 0 0 0 0 0 0 0
-1 -1 0 -2 0 0 0 0 0 0 0 0 0 0 0 0 0 0 0 0 0 0 0 0 0 0 0 0 0 0 0 0 0 0 0 0 0 0 0 0 0 0 0 0 0 0 0 0 0
-8 0 -2 -17 -2 0 0 0 0 0 0 0 0 0 0 0 0 0 0 0 0 0 0 0 0 0 0 0 0 0 0 0 0 0 0 0 0 0 0 0 0 0 0 0 0 0 0 0 0
-1 0 -11 -3 -12 -2 0 0 0 0 0 0 0 0 0 0 0 0 0 0 0 0 0 0 0 0 0 0 0 0 0 0 0 0 0 0 0 0 0 0 0 0 0 0 0 0 0 0 0
-20 -4 -4 -1 0 0 0 0 0 0 0 0 0 0 0 0 0 0 0 0 0 0 0 0 0 0 0 0 0 0 0 0 0 0 0 0 0 0 0 0 0 0 0 0 0 0 0 0 0
Wind_Speed
24 23 20 18 22 20 21 18 16 15 14 16 16 16 14 14 14 15 19 24 25 23 23 24 21 12 5 6 3 3 7 9 9 9 13 17 18 20 20 20 15 11 16 16 16 19 21 20 20
24 22 19 19 24 24 21 17 17 14 15 14 14 15 15 13 15 16 20 23 24 20 20 18 14 9 7 11 2 4 11 13 11 14 15 19 18 19 20 17 15 15 15 17 18 20 19 19 20
24 20 21 20 21 27 23 19 15 13 12 14 14 15 15 14 14 16 16 20 22 19 12 14 13 5 8 8 16 6 9 10 11 15 17 18 17 18 16 15 13 18 17 16 18 19 19 19 20
23 23 20 23 23 24 23 19 14 10 14 14 15 16 15 13 13 15 17 18 22 15 9 14 12 7 9 12 6 8 8 10 11 12 16 17 16 16 17 19 16 18 17 18 19 19 19 19 20
18 21 27 25 25 22 23 21 14 11 14 15 15 18 16 14 13 14 17 17 21 18 5 12 13 11 16 16 8 3 8 7 9 10 14 15 16 15 16 15 15 14 15 16 17 18 18 18 19
22 22 28 33 27 23 22 21 15 15 16 16 18 17 16 12 12 14 16 17 17 23 2 3 12 3 9 9 5 5 5 8 11 11 11 12 12 11 12 12 12 11 13 15 16 17 17 18 19
27 24 27 30 30 26 20 16 19 17 17 18 16 19 17 9 10 12 16 15 12 1 16 8 16 10 8 6 4 5 4 6 8 9 11 11 11 9 9 13 14 13 14 14 15 16 17 18 19
24 26 28 28 30 28 19 16 19 20 20 17 15 19 19 8 8 11 13 12 8 0 21 15 14 15 8 10 5 4 5 5 7 9 12 11 10 9 9 11 11 12 12 11 12 14 16 17 19
21 30 34 32 28 28 21 19 19 20 20 19 17 18 17 8 7 8 11 11 8 4 23 22 11 3 8 10 6 3 6 8 9 9 11 11 9 8 9 9 8 9 10 11 13 14 15 16 18
27 36 37 30 31 29 24 24 21 22 24 24 22 17 15 5 4 6 9 11 10 5 10 20 16 10 5 6 4 4 5 4 3 5 7 6 7 7 7 8 8 8 9 11 12 14 14 14 16
29 38 33 33 35 34 35 36 24 27 29 27 25 17 11 5 0 4 5 10 11 9 8 15 14 9 4 6 4 7 6 3 4 4 4 5 6 6 7 7 8 8 8 10 11 12 13 14 15
36 33 32 31 26 26 31 33 30 33 31 23 23 21 10 5 3 4 6 6 9 8 7 12 10 9 5 8 9 8 7 6 5 3 3 3 4 5 6 7 7 7 8 9 11 12 13 14 15
36 31 32 31 31 29 28 33 34 37 33 27 27 22 14 8 6 4 5 3 6 9 7 8 13 8 10 8 7 6 7 7 7 5 2 2 3 3 4 5 6 6 7 8 10 11 12 13 13
32 35 33 32 34 33 33 35 31 33 33 31 27 25 19 14 10 13 8 6 5 8 8 8 11 14 12 10 7 5 6 8 8 6 3 1 3 3 4 5 5 6 6 8 10 10 11 12 13
34 37 35 36 33 34 31 45 42 37 30 35 29 26 22 19 15 12 9 8 6 8 7 9 10 14 15 14 11 9 8 8 7 6 5 3 3 3 4 5 5 6 7 8 10 11 11 12 12
35 39 48 35 32 33 31 51 37 35 40 44 43 37 30 24 20 18 17 14 10 7 8 9 13 12 14 14 16 15 12 10 10 9 8 5 4 4 4 4 4 5 6 8 9 10 11 12 12
32 44 51 45 30 32 36 46 35 36 38 41 42 44 38 34 28 22 19 17 15 10 9 10 11 13 14 14 14 15 15 13 11 10 10 8 6 6 6 6 4 4 5 6 8 9 10 11 12
34 38 42 43 32 35 42 48 41 37 33 38 41 41 40 38 33 24 20 18 17 13 10 10 11 12 13 14 14 14 15 15 15 14 13 10 9 8 7 7 5 5 5 5 7 8 9 11 11
41 37 39 36 32 36 44 48 46 43 43 45 45 41 41 41 41 33 27 20 17 14 13 13 13 14 15 15 15 15 16 17 16 15 13 10 9 9 9 9 7 5 5 6 6 7 8 8 9
40 38 38 35 31 37 44 52 48 48 48 47 47 47 49 43 38 36 31 25 19 17 17 16 15 15 15 15 16 17 16 16 14 13 11 11 11 12 11 9 7 6 7 6 6 6 7 8 9
44 43 36 39 31 34 41 55 53 47 48 48 50 49 49 48 39 34 30 27 27 24 20 19 18 17 16 16 15 15 16 15 13 14 15 16 14 12 11 10 9 8 7 8 7 7 8 10 12
49 36 39 39 37 47 33 55 51 43 45 43 44 44 48 47 43 35 34 30 27 25 25 22 21 20 19 18 16 17 17 16 14 14 14 13 13 13 12 12 11 10 9 10 10 10 10 11 14
40 39 37 35 39 42 48 51 57 45 52 48 46 43 44 42 43 30 31 32 30 28 27 26 24 22 21 20 19 19 19 17 16 15 15 14 14 14 14 13 13 12 12 12 12 13 13 14 15
25 25 23 27 31 49 53 51 57 54 53 48 46 43 40 39 35 33 30 33 32 27 26 25 26 26 24 23 22 22 21 19 19 18 18 17 16 16 15 15 16 15 14 14 15 15 16 16 15
37 35 40 36 40 51 35 47 65 46 44 45 42 37 37 36 36 35 31 26 27 27 26 27 26 26 26 26 25 25 23 22 22 21 21 20 21 20 19 18 17 17 16 17 18 18 17 16 17
46 45 46 47 43 49 31 49 52 41 44 44 44 42 38 37 36 34 31 28 26 27 28 27 25 26 27 27 28 28 26 26 24 23 21 22 22 22 19 19 18 17 18 18 18 19 17 17 17
50 53 48 52 45 49 45 55 49 43 42 41 41 39 39 39 36 36 34 31 29 28 27 24 24 24 23 24 25 27 28 28 26 23 22 21 19 20 20 17 16 17 18 18 17 17 17 17 17
44 40 47 44 57 62 55 63 60 44 43 40 44 44 42 42 41 40 36 33 30 27 35 31 23 23 24 23 23 24 26 29 29 26 22 20 20 18 17 16 17 17 17 16 16 17 16 17 17
42 48 42 40 44 56 62 63 55 54 48 49 44 40 37 37 37 37 36 38 33 30 31 30 26 24 22 22 21 21 22 28 29 25 23 22 21 19 18 17 16 16 16 16 16 16 17 18 18
45 42 46 51 46 43 49 60 33 28 29 30 30 30 32 33 36 36 36 34 31 31 30 28 28 25 23 22 22 21 23 26 26 26 26 25 22 20 19 18 17 17 17 17 17 18 18 19 20
Wind_Direction
299 305 311 305 285 291 286 298 318 335 5 23 60 71 90 103 110 97 115 138 123 113 116 121 109 227 254 45 336 330 22 23 17 14 38 57 59 65 63 56 35 22 41 40 39 46 48 45 40
300 307 304 292 273 276 284 302 302 333 344 28 40 50 60 104 77 84 110 137 126 106 106 95 77 49 248 227 321 5 49 50 36 45 53 69 62 63 66 49 39 42 40 44 47 50 46 42 39
295 311 294 287 281 269 282 296 310 328 2 4 7 27 38 53 83 95 98 118 123 109 82 84 76 22 250 243 212 30 35 40 37 57 67 68 63 64 55 45 34 54 47 43 50 49 47 43 39
300 286 298 281 280 277 280 296 306 327 329 344 351 356 28 54 86 104 105 114 126 104 72 92 77 55 249 233 270 48 41 44 44 48 64 64 61 60 61 65 48 59 51 53 56 53 47 42 34
299 288 268 277 277 284 280 289 294 307 318 328 340 329 352 38 67 94 110 117 127 119 60 89 90 81 228 228 258 329 50 36 45 47 58 60 63 59 63 54 50 42 49 52 51 49 44 35 29
278 280 269 265 274 283 287 282 289 291 306 320 319 323 340 32 69 99 111 118 122 138 6 325 246 348 259 259 286 289 25 58 63 53 51 52 49 42 46 44 37 35 41 51 52 48 41 34 30
270 272 269 266 268 277 287 285 274 284 296 304 327 312 328 15 71 103 116 116 113 67 242 269 241 258 269 280 341 322 3 63 54 53 56 53 51 33 30 50 56 49 50 49 47 41 37 37 33
274 268 267 268 265 268 287 286 280 278 286 311 318 304 311 20 78 103 116 118 113 47 238 249 249 244 273 268 311 43 55 55 57 64 71 64 48 31 24 41 45 50 43 32 29 37 42 38 36
279 262 262 264 264 268 278 285 283 287 291 296 299 304 314 21 70 100 116 126 128 269 239 240 262 293 279 272 291 45 77 82 78 76 77 76 52 38 35 336 7 20 25 25 28 35 48 43 33
267 259 262 270 271 266 270 274 285 287 278 280 286 299 311 9 71 120 132 140 145 166 256 247 255 268 284 285 287 280 287 309 1 48 71 24 17 355 350 360 11 29 33 27 24 30 39 37 24
269 261 268 270 273 268 264 266 279 272 269 274 277 292 306 317 352 142 147 151 154 159 253 255 257 264 262 272 275 273 286 316 316 355 6 10 10 11 0 17 30 28 31 21 17 17 16 14 15
264 269 271 272 278 276 269 270 266 262 266 284 280 285 297 288 226 178 166 154 157 169 190 254 254 256 248 263 265 272 277 284 300 336 20 32 24 20 5 353 5 7 359 356 360 6 8 10 12
263 271 269 273 271 274 277 271 263 260 265 275 277 281 288 285 265 262 267 190 165 173 198 226 251 243 254 257 264 271 275 277 285 291 322 18 24 31 24 1 355 359 357 356 358 2 6 11 14
275 267 270 271 267 269 271 267 267 262 261 268 275 276 279 281 273 278 270 255 201 181 197 217 238 250 252 255 255 259 274 277 279 280 278 290 328 339 344 350 353 348 353 351 354 0 4 3 7
273 266 268 265 267 266 271 257 259 263 268 261 268 271 275 276 276 268 265 261 225 199 198 212 221 247 252 255 260 265 271 273 274 277 272 256 284 308 320 332 339 344 346 345 346 348 352 356 359
269 263 255 263 264 268 265 252 267 268 261 258 258 261 268 272 273 272 272 271 263 232 220 216 246 237 245 254 260 265 269 270 274 276 276 264 266 284 300 315 329 345 342 340 344 348 347 348 352
266 258 253 258 265 266 259 258 271 269 264 261 257 256 262 264 268 270 269 268 267 247 235 221 229 237 243 249 259 263 267 268 270 271 272 264 260 270 286 300 316 329 336 341 342 341 344 346 348
261 260 255 255 263 261 259 258 267 267 270 262 260 261 262 262 263 264 265 264 264 257 241 232 227 231 233 247 254 261 265 267 269 270 269 264 262 263 272 289 295 305 321 330 331 334 340 342 346
260 260 256 263 265 263 261 259 261 263 259 258 261 265 262 262 260 263 263 260 259 250 238 235 237 238 241 241 245 252 257 263 265 266 263 253 250 255 264 279 284 283 292 306 317 327 331 339 344
249 254 257 266 271 265 264 260 262 260 258 258 259 258 255 263 264 261 261 257 247 246 245 240 230 232 229 238 243 256 255 260 258 256 244 232 247 259 261 262 263 262 285 282 299 307 321 323 333
251 251 256 264 272 270 269 260 261 261 259 258 255 256 254 256 264 264 260 253 254 251 238 232 231 231 227 229 242 246 265 262 256 252 255 255 251 246 241 238 253 261 263 279 281 281 293 312 322
251 256 261 265 267 258 268 256 256 262 260 262 260 262 256 256 261 263 261 258 254 250 250 243 232 225 225 221 227 223 233 238 245 254 253 248 234 236 241 244 247 250 266 269 280 288 291 299 309
261 260 257 263 265 265 259 258 253 261 256 258 258 263 260 263 261 266 262 260 257 257 249 243 241 235 228 223 222 226 228 242 251 256 259 249 252 239 234 238 247 254 267 270 277 287 286 294 300
249 256 264 265 267 258 254 254 254 255 255 260 264 267 268 268 270 270 269 265 262 258 251 246 238 236 235 230 227 228 228 235 252 252 257 260 260 260 247 252 259 261 263 269 279 282 287 291 293
250 250 255 265 256 256 269 256 250 261 263 263 268 272 272 271 273 273 273 267 260 255 249 250 244 236 234 235 239 236 239 242 241 249 253 261 265 267 264 261 261 264 266 274 281 282 284 283 287
244 245 247 256 261 261 265 257 258 267 266 266 267 270 276 275 276 277 277 272 266 259 256 252 243 239 239 238 238 243 244 249 249 250 254 260 263 267 268 266 261 263 271 276 280 285 283 285 287
246 246 252 261 266 265 264 262 269 269 270 269 268 271 273 274 276 275 276 275 270 265 260 250 245 243 239 235 241 241 245 247 250 249 253 257 257 267 269 265 264 268 273 276 279 282 285 287 289
248 253 251 255 255 257 261 259 257 266 268 270 267 269 272 274 277 278 276 276 269 268 263 262 251 244 241 239 238 241 243 247 253 257 251 253 259 261 264 262 268 273 275 276 278 284 286 289 292
245 246 251 258 257 256 259 259 265 266 270 269 273 272 276 280 280 281 278 274 271 268 269 266 262 257 250 241 239 238 237 250 254 253 254 257 261 260 260 265 269 272 275 277 279 283 289 291 293
248 250 249 252 255 259 262 261 273 282 284 276 277 277 281 283 282 283 281 279 273 271 267 267 266 264 258 252 246 238 247 250 251 253 258 261 261 263 263 267 269 273 276 279 280 284 288 291 295